• In Belarus
  • List of Countries
  • For 7 days
  • Water Temperature
  • Satellite Maps
  • Weather Map
  • Weather Widgets
  • user-avatar
    Login

    Hourly Weather Barisal

    Today, 18 December, Monday

    Time Temperature Precipitation Wind Pressure Humidity
    00:00 +20°C° 0 mm 2 mps 762 mmHg 67%
    01:00 +20°C° 0 mm 2 mps 762 mmHg 68%
    02:00 +20°C° 0 mm 2 mps 762 mmHg 69%
    03:00 +19°C° 0 mm 2 mps 762 mmHg 69%
    04:00 +19°C° 0 mm 2 mps 762 mmHg 71%
    05:00 +19°C° 0 mm 2 mps 762 mmHg 74%
    06:00 +19°C° 0 mm 2 mps 762 mmHg 76%
    07:00 +20°C° 0 mm 2 mps 763 mmHg 73%
    08:00 +23°C° 0 mm 2 mps 763 mmHg 69%
    09:00 +24°C° 0 mm 3 mps 763 mmHg 66%
    10:00 +26°C° 0 mm 3 mps 763 mmHg 61%
    11:00 +27°C° 0 mm 2 mps 763 mmHg 55%
    12:00 +28°C° 0 mm 2 mps 763 mmHg 50%
    13:00 +28°C° 0 mm 2 mps 762 mmHg 48%
    14:00 +29°C° 0 mm 2 mps 761 mmHg 46%
    15:00 +29°C° 0 mm 2 mps 761 mmHg 45%
    16:00 +28°C° 0 mm 2 mps 761 mmHg 49%
    17:00 +26°C° 0 mm 1 mps 761 mmHg 53%
    18:00 +25°C° 0 mm 1 mps 761 mmHg 58%
    19:00 +24°C° 0 mm 1 mps 761 mmHg 60%
    20:00 +24°C° 0 mm 1 mps 762 mmHg 61%
    21:00 +23°C° 0 mm 1 mps 762 mmHg 63%
    22:00 +23°C° 0 mm 1 mps 762 mmHg 64%
    23:00 +21°C° 0 mm 2 mps 762 mmHg 66%

    Tomorrow, 19 December, Tuesday

    Time Temperature Precipitation Wind Pressure Humidity
    00:00 +21°C° 0 mm 2 mps 762 mmHg 67%
    01:00 +20°C° 0 mm 2 mps 762 mmHg 69%
    02:00 +20°C° 0 mm 2 mps 761 mmHg 71%
    03:00 +20°C° 0 mm 2 mps 761 mmHg 73%
    04:00 +19°C° 0 mm 2 mps 761 mmHg 75%
    05:00 +19°C° 0 mm 2 mps 761 mmHg 77%
    06:00 +19°C° 0 mm 2 mps 761 mmHg 78%
    07:00 +20°C° 0 mm 2 mps 762 mmHg 73%
    08:00 +23°C° 0 mm 2 mps 763 mmHg 68%
    09:00 +24°C° 0 mm 2 mps 763 mmHg 63%
    10:00 +26°C° 0 mm 2 mps 763 mmHg 57%
    11:00 +27°C° 0 mm 2 mps 763 mmHg 51%
    12:00 +28°C° 0 mm 2 mps 763 mmHg 45%
    13:00 +29°C° 0 mm 2 mps 762 mmHg 43%
    14:00 +29°C° 0 mm 1 mps 761 mmHg 41%
    15:00 +29°C° 0 mm 1 mps 761 mmHg 39%
    16:00 +28°C° 0 mm 1 mps 761 mmHg 43%
    17:00 +26°C° 0 mm 1 mps 761 mmHg 47%
    18:00 +25°C° 0 mm 1 mps 761 mmHg 51%
    19:00 +24°C° 0 mm 1 mps 762 mmHg 53%
    20:00 +24°C° 0 mm 1 mps 762 mmHg 55%
    21:00 +23°C° 0 mm 1 mps 762 mmHg 57%
    22:00 +23°C° 0 mm 1 mps 762 mmHg 58%
    23:00 +22°C° 0 mm 1 mps 762 mmHg 59%

    Day after tomorrow, 20 December, Wednesday

    Time Temperature Precipitation Wind Pressure Humidity
    00:00 +22°C° 0 mm 1 mps 762 mmHg 61%
    01:00 +21°C° 0 mm 1 mps 762 mmHg 63%
    02:00 +20°C° 0 mm 2 mps 762 mmHg 64%
    03:00 +20°C° 0 mm 2 mps 762 mmHg 66%
    04:00 +19°C° 0 mm 2 mps 762 mmHg 68%
    05:00 +19°C° 0 mm 2 mps 762 mmHg 70%
    06:00 +19°C° 0 mm 2 mps 762 mmHg 72%
    07:00 +20°C° 0 mm 2 mps 763 mmHg 67%
    08:00 +23°C° 0 mm 2 mps 763 mmHg 63%
    09:00 +24°C° 0 mm 2 mps 764 mmHg 58%
    10:00 +26°C° 0 mm 2 mps 764 mmHg 52%
    11:00 +28°C° 0 mm 1 mps 763 mmHg 47%
    12:00 +29°C° 0 mm 1 mps 763 mmHg 41%
    13:00 +29°C° 0 mm 1 mps 762 mmHg 39%
    14:00 +30°C° 0 mm 1 mps 762 mmHg 37%
    15:00 +30°C° 0 mm 1 mps 761 mmHg 35%
    16:00 +28°C° 0 mm 1 mps 761 mmHg 39%
    17:00 +27°C° 0 mm 1 mps 762 mmHg 43%
    18:00 +25°C° 0 mm 1 mps 762 mmHg 47%
    19:00 +25°C° 0 mm 1 mps 762 mmHg 49%
    20:00 +24°C° 0 mm 1 mps 763 mmHg 52%
    21:00 +23°C° 0 mm 1 mps 763 mmHg 54%
    22:00 +23°C° 0 mm 1 mps 763 mmHg 55%
    23:00 +22°C° 0 mm 1 mps 763 mmHg 57%

    21 December, Thursday

    Time Temperature Precipitation Wind Pressure Humidity
    00:00 +22°C° 0 mm 1 mps 763 mmHg 58%
    01:00 +22°C° 0 mm 1 mps 762 mmHg 59%
    02:00 +21°C° 0 mm 1 mps 762 mmHg 60%
    03:00 +21°C° 0 mm 1 mps 762 mmHg 61%
    04:00 +21°C° 0 mm 1 mps 762 mmHg 62%
    05:00 +20°C° 0 mm 1 mps 762 mmHg 63%
    06:00 +20°C° 0 mm 1 mps 762 mmHg 65%
    07:00 +22°C° 0 mm 1 mps 763 mmHg 61%
    08:00 +23°C° 0 mm 1 mps 764 mmHg 57%
    09:00 +25°C° 0 mm 1 mps 764 mmHg 53%
    10:00 +27°C° 0 mm 1 mps 764 mmHg 48%
    11:00 +28°C° 0 mm 1 mps 763 mmHg 43%
    12:00 +29°C° 0 mm 1 mps 763 mmHg 39%
    13:00 +30°C° 0 mm 1 mps 762 mmHg 37%
    14:00 +30°C° 0 mm 1 mps 761 mmHg 35%
    15:00 +30°C° 0 mm 1 mps 760 mmHg 33%
    16:00 +29°C° 0 mm 1 mps 760 mmHg 37%
    17:00 +27°C° 0 mm 1 mps 761 mmHg 41%
    18:00 +25°C° 0 mm 1 mps 761 mmHg 45%
    19:00 +25°C° 0 mm 1 mps 761 mmHg 48%
    20:00 +24°C° 0 mm 1 mps 761 mmHg 51%
    21:00 +23°C° 0 mm 1 mps 762 mmHg 54%
    22:00 +23°C° 0 mm 1 mps 762 mmHg 58%
    23:00 +22°C° 0 mm 1 mps 761 mmHg 61%

    22 December, Friday

    Time Temperature Precipitation Wind Pressure Humidity
    00:00 +21°C° 0 mm 2 mps 761 mmHg 64%
    01:00 +21°C° 0 mm 2 mps 761 mmHg 64%
    02:00 +20°C° 0 mm 2 mps 761 mmHg 65%
    03:00 +20°C° 0 mm 2 mps 760 mmHg 65%
    04:00 +21°C° 0 mm 1 mps 761 mmHg 65%
    05:00 +20°C° 0 mm 1 mps 761 mmHg 65%
    06:00 +20°C° 0 mm 1 mps 761 mmHg 64%
    07:00 +22°C° 0 mm 1 mps 762 mmHg 60%
    08:00 +24°C° 0 mm 1 mps 762 mmHg 55%
    09:00 +25°C° 0 mm 1 mps 763 mmHg 50%
    10:00 +27°C° 0 mm 1 mps 762 mmHg 47%
    11:00 +28°C° 0 mm 1 mps 762 mmHg 43%
    12:00 +30°C° 0 mm 1 mps 761 mmHg 39%
    13:00 +30°C° 0 mm 1 mps 760 mmHg 38%
    14:00 +30°C° 0 mm 1 mps 760 mmHg 37%
    15:00 +30°C° 0 mm 1 mps 759 mmHg 36%
    16:00 +29°C° 0 mm 2 mps 759 mmHg 40%
    17:00 +27°C° 0 mm 2 mps 759 mmHg 44%
    18:00 +26°C° 0 mm 2 mps 759 mmHg 48%
    19:00 +25°C° 0 mm 1 mps 760 mmHg 51%
    20:00 +24°C° 0 mm 1 mps 760 mmHg 54%
    21:00 +24°C° 0 mm 1 mps 760 mmHg 57%
    22:00 +23°C° 0 mm 1 mps 760 mmHg 60%
    23:00 +23°C° 0 mm 1 mps 760 mmHg 63%

    23 December, Saturday

    Time Temperature Precipitation Wind Pressure Humidity
    00:00 +22°C° 0 mm 1 mps 760 mmHg 66%
    01:00 +22°C° 0 mm 1 mps 760 mmHg 67%
    02:00 +22°C° 0 mm 1 mps 759 mmHg 68%
    03:00 +19°C° 0 mm 0 mps 759 mmHg 69%
    04:00 +19°C° 0 mm 0 mps 759 mmHg 70%
    05:00 +19°C° 0 mm 0 mps 759 mmHg 70%
    06:00 +19°C° 0 mm 0 mps 759 mmHg 71%
    07:00 +20°C° 0 mm 0 mps 760 mmHg 66%
    08:00 +24°C° 0 mm 1 mps 760 mmHg 60%
    09:00 +26°C° 0 mm 1 mps 761 mmHg 55%
    10:00 +27°C° 0 mm 1 mps 760 mmHg 49%
    11:00 +28°C° 0 mm 1 mps 760 mmHg 44%
    12:00 +30°C° 0 mm 1 mps 759 mmHg 38%
    13:00 +30°C° 0 mm 1 mps 759 mmHg 36%
    14:00 +31°C° 0 mm 2 mps 758 mmHg 35%
    15:00 +31°C° 0 mm 2 mps 758 mmHg 33%
    16:00 +29°C° 0 mm 2 mps 758 mmHg 37%
    17:00 +28°C° 0 mm 2 mps 758 mmHg 41%
    18:00 +26°C° 0 mm 2 mps 758 mmHg 44%
    19:00 +25°C° 0 mm 1 mps 758 mmHg 47%
    20:00 +24°C° 0 mm 1 mps 759 mmHg 49%
    21:00 +24°C° 0 mm 1 mps 759 mmHg 52%
    22:00 +23°C° 0 mm 1 mps 759 mmHg 53%
    23:00 +23°C° 0 mm 1 mps 759 mmHg 54%
    Show more